Regional Weather Roundup
Issued by NWS

Home | Current Version | Previous Version | Text Only | Print | Product List | Glossary On
Versions: 1 2 3 4 5 6 7 8 9 10 11 12 13 14 15 16 17 18 19 20 21 22 23 24 25 26 27 28 29 30 31 32 33 34 35 36 37 38 39 40 41 42 43 44 45 46 47 48 49 50
000
ASUS44 KBMX 200310
RWRAL

ALABAMA REGIONAL WEATHER ROUNDUP
NATIONAL WEATHER SERVICE BIRMINGHAM AL
900 PM CST FRI DEC 19 2014

NOTE: "FAIR" INDICATES FEW OR NO CLOUDS BELOW 12,000 FEET
WITH NO SIGNIFICANT WEATHER AND/OR OBSTRUCTIONS TO VISIBILITY.

THE REMARK "TC" DENOTES TEMPERATURE IN DEGREES CELSIUS.

ALZ001>011-014-016>018-020-200400-
NORTH ALABAMA

CITY           SKY/WX    TMP DP  RH WIND       PRES   REMARKS
MUSCLE SHOALS  CLOUDY    41  31  67 NW3       30.25R
HUNTSVILLE     CLOUDY    41  29  62 NE9       30.19F
DECATUR        CLOUDY    39  29  67 NE3       30.20F
HALEYVILLE     LGT RAIN  36  34  92 CALM      30.20F
GADSDEN        CLOUDY    41  37  87 CALM      30.19F
$$

ALZ012-013-022-023-030>036-040>044-200400-
WEST CENTRAL ALABAMA

CITY           SKY/WX    TMP DP  RH WIND       PRES   REMARKS
TUSCALOOSA     LGT RAIN  44  41  89 NE5       30.18F
$$

ALZ015-024>027-033>036-040>044-200400-
CENTRAL ALABAMA

CITY           SKY/WX    TMP DP  RH WIND       PRES   REMARKS
BIRMINGHAM     LGT RAIN  42  39  89 CALM      30.20S
MONTGOMERY     LGT RAIN  46  42  86 N6        30.17F
SHELBY CO ARPT LGT RAIN  43  41  93 CALM      30.17F
MAXWELL AFB    LGT RAIN  45  43  92 N6        30.16F
GREENVILLE     LGT RAIN  46  43  89 NE5       30.14F
$$

ALZ019-021-028-029-037-038-045>048-200400-
EAST CENTRAL ALABAMA

CITY           SKY/WX    TMP DP  RH WIND       PRES   REMARKS
ANNISTON       LGT RAIN  43  38  82 NE3       30.19F
ALEXANDER CITY LGT RAIN  47  41  82 CALM      30.16F
AUBURN         CLOUDY    45  36  70 N8        30.17F
$$

ALZ051>064-200400-
SOUTHWEST ALABAMA

CITY           SKY/WX    TMP DP  RH WIND       PRES   REMARKS
MOBILE         CLOUDY    46  45  96 NE9       30.12F
BROOKLEY FIELD LGT RAIN  50  48  93 NE13      30.14R
EVERGREEN      RAIN      47  45  93 NE6       30.16S FOG
$$

ALZ049-050-065>069-200400-
SOUTHEAST ALABAMA

CITY           SKY/WX    TMP DP  RH WIND       PRES   REMARKS
DOTHAN         LGT RAIN  48  44  86 N3        30.18R
OZARK          LGT RAIN  48  44  88 N5        30.15S
TROY           LGT RAIN  47  43  86 N9        30.15F
EUFAULA        CLOUDY    48  45  89 CALM      30.14R
$$



USA.gov is the U.S. government's official web portal to all federal, state and local government web resources and services.